CZ-6A DEB, 54352

Orbit data source: Space-Track

CZ-6A DEB, 54352 is space debris in SSO originally from a launch on Fri, 11 Nov 2022 UTC launched from the Taiyaun Space Center, China (TSC). Debris objects in space refer to the collection of defunct objects orbiting the Earth. Examples of debris include non-operational satellites, rocket bodies, and fragments generated from explosions, collisions, or faulty payload assembly.

Loading next visibility...
Identifier
54352, 2022-151CX
Orbit
SSO
Country
Flag of CNCN / PRC
Related business
Manufacturer
SAST
Mission
Spacecraft
Bus & Motor
Unknown
Mass
Unknown
Launch date (UTC)
2022-11-11 (4 years ago)
Launch vehicle
Unknown
Launch site
Taiyaun Space Center, China (TSC)
Object type
Payload
Rocket body
Debris
Shape & HBR
Unknown shape, 0.1 m
Radar Cross Section
Medium (>0.1 m² and <1 m²)

Expand to show TLE details & history
Last TLE update: 2 days ago

TLE from 2 days ago
0 CZ-6A DEB
1 54352U 22151CX  26171.43240525  .00110264  00000-0  35013-2 0  9990
2 54352  99.0283 339.8659 0044987 212.0965 147.7530 15.31216797120969
Epoch: 2026-06-20T10:22Z
TLE epoch observation values (Epoch: 2026-06-20T10:22:39.813Z)
Latitude
-0.00011°
Longitude
-84.44708°
Altitude
501.344 km
Speed
7.599 km/s
True Right ascension
22h 39m 27s
True Declination
0° 00' 00"
Sunlit
Object was in daylight at epoch
Visualization orbit readout
Latitude
Unknown
Longitude
Unknown
Altitude
Unknown
Speed
Unknown
Apparent Right ascension
Unknown
Apparent Declination
Unknown
Sunlit
N/A
Visualization observer readout
Local Sidereal Time
21:25:56
Azimuth
Unknown
Elevation
Unknown
Doppler factor
Unknown
Orbital elements
Apogee altitude
500.013 km
Perigee altitude
438.405 km
Semi-major axis
6,847.346 km
Eccentricity
0.0045
Inclination
99.0283°
RAAN
339.8659°
Arg. of periapsis
212.0965°
True anomaly
148.02676°
Mean anomaly
147.753°
Eccentric anomaly
147.89001°
Mean motion
3.83054 °/min
Orbital period
93.98 mins
BSTAR
0.0035013
Loading maneuver chart data...
Computing Atmospheric mass density...
Loading historical data...
Loading historical data...
Loading historical data...
Loading historical data...
Loading historical data...
Loading historical data...
Loading historical data...

Documentation

Showing up to 5 results
|